OAL463 CYYZ-KSFO

Flight info

Callsign OAL463
Flight time N/A
Altitude 32002
Route GOPUP4 SLLAP DCT BAE J16 MCW J148 CYS DCT EKR DCT LOOLO DCT DTA DCT RUMPS DCT OAL DCT INYOE DYAMD5
Aircraft B77L/H-SDE1E2E3FGHIJ2J3J4J5M1RWXY/LB1D1

Departure

Time 2026-05-04 10:45
Airport Toronto Pearson International Airport (CYYZ)

Arrival

Time N/A
Airport San Francisco International Airport (KSFO)
Time Latitude Longitude Altitude Speed Heading
2026-05-04 10:32 43.68307 -79.62127 566 ft 0 kts 112°
2026-05-04 10:39 43.68355 -79.62218 570 ft 3 kts 220°
2026-05-04 10:39 43.68370 -79.62200 568 ft 3 kts 227°
2026-05-04 10:39 43.68371 -79.62199 568 ft 0 kts 227°
2026-05-04 10:40 43.68369 -79.62202 566 ft 3 kts 227°
2026-05-04 10:40 43.68333 -79.62255 573 ft 13 kts 227°
2026-05-04 10:41 43.68277 -79.62391 572 ft 19 kts 256°
2026-05-04 10:41 43.68322 -79.62547 572 ft 19 kts 316°
2026-05-04 10:41 43.68419 -79.62671 576 ft 19 kts 317°
2026-05-04 10:41 43.68515 -79.62796 568 ft 19 kts 317°
2026-05-04 10:42 43.68612 -79.62921 571 ft 19 kts 316°
2026-05-04 10:42 43.68707 -79.63047 575 ft 19 kts 316°
2026-05-04 10:42 43.68803 -79.63172 571 ft 19 kts 316°
2026-05-04 10:42 43.68899 -79.63297 571 ft 19 kts 317°
2026-05-04 10:43 43.68996 -79.63422 569 ft 19 kts 316°
2026-05-04 10:44 43.69184 -79.63845 576 ft 75 kts 226°
2026-05-04 10:45 43.68679 -79.64574 573 ft 133 kts 226°
2026-05-04 10:45 43.67922 -79.65665 576 ft 179 kts 226°
2026-05-04 10:45 43.67060 -79.66896 1052 ft 172 kts 226°
2026-05-04 10:45 43.66244 -79.68106 1365 ft 181 kts 231°
2026-05-04 10:46 43.65477 -79.69556 1669 ft 189 kts 235°
2026-05-04 10:46 43.64745 -79.71048 2127 ft 188 kts 236°
2026-05-04 10:46 43.64017 -79.72557 2562 ft 188 kts 236°
2026-05-04 10:46 43.63310 -79.74077 2948 ft 188 kts 244°
2026-05-04 10:47 43.63091 -79.75835 3268 ft 190 kts 281°
2026-05-04 10:47 43.63529 -79.77540 3626 ft 189 kts 290°
2026-05-04 10:47 43.64080 -79.79204 3943 ft 193 kts 296°
2026-05-04 10:47 43.64755 -79.80829 4246 ft 198 kts 297°
2026-05-04 10:49 43.70041 -79.95365 7301 ft 275 kts 276°
2026-05-04 10:49 43.70257 -79.98016 8015 ft 279 kts 276°
2026-05-04 10:50 43.70491 -80.00687 8769 ft 282 kts 276°
2026-05-04 10:51 43.72393 -80.20323 13232 ft 319 kts 278°
2026-05-04 10:52 43.72695 -80.23401 13678 ft 329 kts 278°
2026-05-04 10:52 43.73007 -80.26589 14129 ft 340 kts 278°
2026-05-04 10:52 43.73302 -80.29884 14582 ft 349 kts 275°
2026-05-04 10:54 43.73351 -80.54022 17576 ft 364 kts 271°
2026-05-04 10:54 43.73352 -80.57526 17995 ft 366 kts 271°
2026-05-04 10:56 43.73335 -80.82750 21002 ft 385 kts 271°
2026-05-04 10:56 43.73327 -80.86465 21427 ft 388 kts 271°
2026-05-04 10:56 43.73318 -80.90209 21860 ft 391 kts 271°
2026-05-04 10:57 43.73308 -80.93983 22289 ft 394 kts 271°
2026-05-04 10:57 43.73297 -80.97780 22716 ft 397 kts 271°
2026-05-04 10:57 43.73284 -81.01606 23145 ft 399 kts 271°
2026-05-04 10:57 43.73270 -81.05456 23565 ft 402 kts 271°
2026-05-04 10:58 43.73255 -81.09295 23982 ft 408 kts 271°
2026-05-04 10:58 43.73246 -81.13225 24488 ft 410 kts 271°
2026-05-04 10:58 43.73228 -81.17181 24972 ft 412 kts 271°
2026-05-04 10:58 43.73207 -81.21160 25423 ft 415 kts 271°
2026-05-04 10:59 43.73183 -81.25161 25855 ft 418 kts 271°
2026-05-04 10:59 43.73160 -81.29193 26272 ft 421 kts 271°
2026-05-04 10:59 43.73136 -81.33252 26697 ft 424 kts 271°
2026-05-04 10:59 43.73108 -81.37335 27122 ft 426 kts 271°
2026-05-04 11:00 43.73079 -81.41437 27558 ft 428 kts 271°
2026-05-04 11:01 43.72832 -81.70809 30180 ft 444 kts 271°
2026-05-04 11:02 43.72786 -81.75087 30512 ft 446 kts 271°
2026-05-04 11:02 43.72739 -81.79390 30825 ft 448 kts 271°
2026-05-04 11:05 43.70687 -82.38124 33642 ft 469 kts 266°
2026-05-04 11:06 43.70477 -82.41100 33689 ft 469 kts 266°
2026-05-04 11:06 43.69349 -82.57110 33719 ft 451 kts 266°
2026-05-04 11:10 43.64057 -83.17415 33712 ft 453 kts 264°
2026-05-04 11:12 43.60562 -83.51833 33725 ft 452 kts 264°
2026-05-04 11:12 43.59680 -83.60366 33720 ft 452 kts 264°
2026-05-04 11:13 43.58778 -83.69009 33713 ft 452 kts 264°
2026-05-04 11:13 43.57877 -83.77588 33712 ft 452 kts 264°
2026-05-04 11:14 43.56971 -83.86162 33712 ft 452 kts 264°
2026-05-04 11:16 43.53279 -84.20420 33710 ft 451 kts 264°
2026-05-04 11:16 43.52340 -84.28971 33707 ft 452 kts 264°
2026-05-04 11:17 43.51392 -84.37540 33697 ft 452 kts 264°
2026-05-04 11:19 43.47548 -84.71726 33702 ft 453 kts 263°
2026-05-04 11:19 43.46570 -84.80284 33704 ft 453 kts 263°
2026-05-04 11:20 43.45585 -84.88857 33702 ft 454 kts 263°
2026-05-04 11:20 43.44622 -84.97439 33703 ft 453 kts 265°
2026-05-04 11:22 43.42714 -85.20426 33697 ft 453 kts 265°
2026-05-04 11:23 43.41000 -85.40097 33693 ft 453 kts 265°
2026-05-04 11:25 43.39722 -85.54395 33697 ft 453 kts 265°
2026-05-04 11:25 43.37445 -85.79418 33692 ft 453 kts 265°
2026-05-04 11:27 43.33820 -86.18010 33686 ft 452 kts 264°
2026-05-04 11:28 43.32996 -86.26579 33692 ft 452 kts 264°
2026-05-04 11:28 43.32174 -86.35085 33692 ft 452 kts 264°
2026-05-04 11:29 43.31358 -86.43448 33697 ft 453 kts 264°
2026-05-04 11:29 43.30515 -86.52019 33692 ft 453 kts 264°
2026-05-04 11:33 43.24664 -87.09782 33668 ft 456 kts 264°
2026-05-04 11:33 43.23918 -87.16929 33676 ft 456 kts 264°
2026-05-04 11:34 43.23016 -87.25519 33680 ft 456 kts 264°
2026-05-04 11:34 43.22112 -87.34099 33683 ft 456 kts 264°
2026-05-04 11:35 43.21193 -87.42712 33669 ft 456 kts 263°
2026-05-04 11:35 43.20270 -87.51311 33668 ft 456 kts 263°
2026-05-04 11:36 43.19340 -87.59903 33678 ft 456 kts 263°
2026-05-04 11:36 43.18404 -87.68491 33683 ft 456 kts 263°
2026-05-04 11:37 43.17463 -87.77081 33669 ft 456 kts 263°
2026-05-04 11:37 43.16512 -87.85723 33683 ft 455 kts 263°
2026-05-04 11:38 43.15564 -87.94252 33695 ft 455 kts 263°
2026-05-04 11:38 43.14602 -88.02818 33694 ft 456 kts 263°
2026-05-04 11:39 43.13630 -88.11452 33691 ft 456 kts 263°
2026-05-04 11:41 43.11862 -88.40083 33693 ft 453 kts 273°
2026-05-04 11:41 43.11893 -88.41477 33697 ft 454 kts 273°
2026-05-04 11:42 43.12339 -88.67907 33683 ft 455 kts 272°
2026-05-04 11:43 43.12459 -88.76561 33686 ft 455 kts 272°
2026-05-04 11:43 43.12572 -88.85213 33686 ft 455 kts 272°
2026-05-04 11:44 43.12683 -88.93879 33680 ft 455 kts 272°
2026-05-04 11:44 43.12786 -89.02548 33687 ft 455 kts 272°
2026-05-04 11:45 43.12882 -89.11218 33670 ft 456 kts 272°
2026-05-04 11:45 43.12972 -89.19890 33684 ft 456 kts 272°
2026-05-04 11:46 43.13056 -89.28554 33678 ft 455 kts 272°
2026-05-04 11:46 43.13133 -89.37223 33668 ft 455 kts 272°
2026-05-04 11:47 43.13198 -89.45891 33674 ft 455 kts 272°
2026-05-04 11:47 43.13257 -89.54543 33672 ft 455 kts 272°
2026-05-04 11:48 43.13309 -89.63203 33685 ft 454 kts 272°
2026-05-04 11:48 43.13355 -89.71849 33671 ft 454 kts 272°
2026-05-04 11:49 43.13397 -89.80492 33676 ft 454 kts 272°
2026-05-04 11:49 43.13430 -89.89124 33682 ft 454 kts 272°
2026-05-04 11:50 43.13458 -89.97768 33670 ft 454 kts 272°
2026-05-04 11:50 43.13478 -90.06412 33673 ft 454 kts 271°
2026-05-04 11:51 43.13492 -90.15053 33676 ft 454 kts 271°
2026-05-04 11:51 43.13500 -90.23699 33673 ft 455 kts 271°
2026-05-04 11:52 43.13504 -90.32360 33683 ft 455 kts 271°
2026-05-04 11:52 43.13498 -90.41022 33684 ft 456 kts 271°
2026-05-04 11:53 43.13478 -90.49699 33672 ft 456 kts 271°
2026-05-04 11:53 43.13450 -90.58384 33676 ft 456 kts 271°
2026-05-04 11:55 43.13277 -90.93128 33671 ft 457 kts 271°
2026-05-04 11:56 43.13219 -91.01686 33667 ft 457 kts 271°
2026-05-04 11:56 43.13154 -91.10387 33665 ft 457 kts 271°
2026-05-04 11:57 43.13082 -91.19097 33666 ft 457 kts 271°
2026-05-04 11:57 43.13012 -91.27802 33664 ft 457 kts 271°
2026-05-04 11:58 43.12939 -91.36475 33654 ft 457 kts 271°
2026-05-04 11:58 43.12859 -91.45174 33651 ft 457 kts 270°
2026-05-04 11:59 43.12770 -91.53866 33650 ft 456 kts 270°
2026-05-04 11:59 43.12676 -91.62564 33647 ft 456 kts 270°
2026-05-04 12:00 43.12579 -91.71055 33645 ft 456 kts 270°
2026-05-04 12:00 43.12471 -91.79744 33637 ft 457 kts 270°
2026-05-04 12:01 43.12376 -91.86968 33638 ft 456 kts 270°
2026-05-04 12:02 43.12133 -92.04315 33644 ft 456 kts 270°